QPF
0.07 0.11 0.12 0.14 0.17 0.18 0.18 0.16 0.17 0.17 0.14 0.09 0.05 0.03 0.02 0.01 0.00 0.01 0.00 0.00 0.00 0.00 0.00 0.00 0.00 0.00 0.00 0.00 0.01 0.02 0.03 0.04 0.04 0.04 0.04 0.05 0.06 0.07
0.05 0.07 0.09 0.11 0.14 0.16 0.19 0.21 0.22 0.19 0.17 0.14 0.12 0.11 0.07 0.02 0.00 0.01 0.00 0.00 0.00 0.00 0.00 0.00 0.00 0.00 0.00 0.00 0.00 0.01 0.02 0.03 0.03 0.04 0.04 0.04 0.04 0.05
0.03 0.04 0.08 0.10 0.12 0.14 0.17 0.20 0.24 0.27 0.25 0.21 0.22 0.23 0.20 0.09 0.02 0.01 0.00 0.00 0.00 0.00 0.00 0.00 0.00 0.00 0.00 0.00 0.00 0.01 0.01 0.01 0.01 0.02 0.03 0.03 0.04 0.05
0.04 0.03 0.04 0.07 0.11 0.14 0.16 0.19 0.22 0.26 0.26 0.25 0.31 0.31 0.24 0.17 0.09 0.04 0.01 0.00 0.00 0.00 0.00 0.00 0.00 0.00 0.00 0.00 0.00 0.01 0.01 0.01 0.01 0.01 0.02 0.02 0.03 0.04
0.04 0.05 0.04 0.04 0.06 0.11 0.15 0.18 0.20 0.23 0.27 0.29 0.30 0.32 0.29 0.21 0.13 0.07 0.02 0.00 0.00 0.00 0.00 0.00 0.00 0.00 0.00 0.00 0.00 0.00 0.00 0.00 0.00 0.01 0.01 0.02 0.02 0.02
0.03 0.04 0.05 0.05 0.05 0.06 0.09 0.14 0.18 0.21 0.24 0.26 0.31 0.34 0.30 0.24 0.19 0.10 0.04 0.02 0.00 0.00 0.00 0.00 0.00 0.00 0.00 0.00 0.00 0.00 0.00 0.00 0.00 0.00 0.01 0.01 0.02 0.03
0.04 0.04 0.04 0.04 0.04 0.05 0.06 0.09 0.14 0.18 0.21 0.25 0.28 0.33 0.31 0.26 0.20 0.13 0.06 0.03 0.02 0.01 0.00 0.00 0.00 0.00 0.00 0.00 0.00 0.00 0.00 0.00 0.00 0.01 0.02 0.02 0.04 0.06
0.06 0.06 0.04 0.03 0.03 0.03 0.04 0.06 0.09 0.13 0.17 0.22 0.27 0.32 0.32 0.26 0.22 0.17 0.08 0.04 0.02 0.01 0.00 0.00 0.00 0.00 0.00 0.00 0.00 0.00 0.01 0.01 0.01 0.01 0.02 0.02 0.03 0.04
0.09 0.09 0.05 0.02 0.03 0.03 0.03 0.04 0.06 0.09 0.11 0.15 0.22 0.28 0.31 0.30 0.26 0.19 0.10 0.06 0.05 0.02 0.01 0.01 0.01 0.00 0.00 0.00 0.00 0.00 0.01 0.02 0.01 0.01 0.02 0.02 0.02 0.02
0.07 0.09 0.08 0.05 0.04 0.05 0.06 0.04 0.04 0.05 0.07 0.08 0.11 0.18 0.30 0.38 0.33 0.25 0.18 0.11 0.07 0.05 0.03 0.02 0.01 0.01 0.00 0.00 0.00 0.00 0.01 0.01 0.01 0.01 0.01 0.01 0.02 0.02
0.06 0.07 0.09 0.08 0.06 0.03 0.05 0.06 0.06 0.05 0.04 0.06 0.09 0.13 0.21 0.33 0.42 0.33 0.20 0.12 0.08 0.04 0.02 0.02 0.01 0.01 0.00 0.00 0.00 0.00 0.01 0.01 0.01 0.01 0.01 0.00 0.00 0.01
0.10 0.08 0.06 0.07 0.06 0.02 0.03 0.05 0.05 0.04 0.05 0.05 0.06 0.08 0.12 0.18 0.28 0.29 0.20 0.12 0.07 0.04 0.02 0.01 0.01 0.01 0.00 0.00 0.00 0.00 0.00 0.01 0.00 0.00 0.01 0.00 0.00 0.00
0.10 0.09 0.07 0.04 0.02 0.01 0.02 0.04 0.04 0.04 0.06 0.08 0.09 0.08 0.11 0.13 0.15 0.18 0.17 0.14 0.10 0.05 0.02 0.01 0.01 0.00 0.00 0.00 0.00 0.00 0.00 0.00 0.00 0.00 0.00 0.00 0.00 0.00
0.12 0.11 0.09 0.05 0.02 0.01 0.00 0.00 0.01 0.01 0.03 0.07 0.09 0.10 0.11 0.11 0.12 0.13 0.14 0.13 0.11 0.08 0.04 0.02 0.00 0.00 0.00 0.00 0.00 0.00 0.00 0.00 0.01 0.00 0.00 0.00 0.00 0.00
0.10 0.10 0.08 0.04 0.02 0.01 0.01 0.00 0.00 0.00 0.02 0.04 0.08 0.10 0.12 0.11 0.11 0.12 0.13 0.12 0.12 0.10 0.07 0.04 0.01 0.00 0.00 0.00 0.00 0.00 0.00 0.00 0.00 0.00 0.00 0.00 0.00 0.00
0.02 0.03 0.02 0.01 0.01 0.01 0.01 0.00 0.00 0.01 0.01 0.04 0.08 0.12 0.15 0.14 0.12 0.11 0.11 0.11 0.10 0.09 0.07 0.05 0.03 0.01 0.01 0.00 0.00 0.00 0.00 0.00 0.00 0.00 0.00 0.00 0.00 0.00
0.04 0.07 0.06 0.05 0.02 0.02 0.03 0.03 0.02 0.02 0.02 0.05 0.09 0.15 0.17 0.14 0.13 0.12 0.11 0.10 0.08 0.06 0.05 0.04 0.03 0.02 0.01 0.01 0.00 0.00 0.00 0.00 0.00 0.00 0.00 0.00 0.00 0.00
0.03 0.09 0.11 0.11 0.09 0.07 0.06 0.05 0.04 0.04 0.05 0.07 0.10 0.16 0.18 0.16 0.14 0.13 0.12 0.10 0.08 0.06 0.04 0.03 0.02 0.02 0.01 0.01 0.01 0.00 0.00 0.00 0.00 0.00 0.00 0.00 0.00 0.00
0.03 0.06 0.11 0.11 0.11 0.11 0.11 0.09 0.07 0.07 0.09 0.11 0.13 0.16 0.19 0.17 0.15 0.13 0.11 0.11 0.10 0.08 0.05 0.03 0.02 0.01 0.01 0.01 0.00 0.00 0.00 0.00 0.00 0.00 0.00 0.00 0.00 0.00
0.03 0.05 0.08 0.10 0.11 0.11 0.11 0.10 0.10 0.11 0.12 0.13 0.15 0.17 0.20 0.18 0.16 0.14 0.10 0.09 0.10 0.09 0.06 0.04 0.02 0.01 0.01 0.00 0.00 0.00 0.00 0.00 0.00 0.00 0.00 0.00 0.00 0.00
0.06 0.06 0.08 0.09 0.10 0.11 0.11 0.11 0.10 0.11 0.13 0.16 0.17 0.17 0.20 0.18 0.15 0.14 0.12 0.11 0.09 0.09 0.07 0.04 0.02 0.01 0.01 0.00 0.00 0.00 0.00 0.00 0.00 0.00 0.00 0.00 0.00 0.00
0.11 0.10 0.09 0.08 0.09 0.10 0.12 0.12 0.12 0.11 0.14 0.17 0.18 0.19 0.21 0.18 0.15 0.14 0.14 0.11 0.08 0.07 0.07 0.05 0.03 0.02 0.01 0.01 0.00 0.00 0.00 0.00 0.00 0.00 0.00 0.00 0.00 0.00
0.11 0.10 0.10 0.09 0.09 0.10 0.11 0.11 0.12 0.13 0.14 0.16 0.18 0.21 0.22 0.19 0.16 0.15 0.15 0.11 0.09 0.07 0.06 0.06 0.05 0.03 0.01 0.01 0.00 0.00 0.00 0.00 0.00 0.00 0.00 0.00 0.00 0.00
MSLP
1010.49 1010.64 1010.81 1010.95 1011.04 1011.05 1010.97 1010.80 1010.56 1010.29 1010.06 1009.91 1009.89 1010.02 1010.31 1010.72 1011.23 1011.76 1012.28 1012.73 1013.07 1013.30 1013.41 1013.44 1013.42 1013.38 1013.35 1013.37 1013.44 1013.58 1013.77 1014.00 1014.25 1014.51 1014.76 1015.00 1015.22 1015.43
1010.13 1010.38 1010.65 1010.90 1011.10 1011.21 1011.23 1011.14 1010.96 1010.75 1010.53 1010.37 1010.31 1010.38 1010.60 1010.94 1011.38 1011.86 1012.33 1012.76 1013.11 1013.35 1013.49 1013.55 1013.54 1013.50 1013.46 1013.45 1013.47 1013.55 1013.66 1013.82 1014.00 1014.19 1014.38 1014.56 1014.72 1014.88
1009.51 1009.85 1010.21 1010.56 1010.88 1011.11 1011.24 1011.27 1011.19 1011.06 1010.89 1010.75 1010.68 1010.71 1010.86 1011.13 1011.49 1011.92 1012.35 1012.76 1013.11 1013.38 1013.56 1013.66 1013.69 1013.69 1013.66 1013.64 1013.64 1013.68 1013.74 1013.83 1013.93 1014.05 1014.17 1014.28 1014.39 1014.49
1008.72 1009.11 1009.53 1009.98 1010.40 1010.75 1011.01 1011.17 1011.22 1011.18 1011.09 1010.99 1010.93 1010.95 1011.06 1011.27 1011.57 1011.93 1012.33 1012.72 1013.08 1013.39 1013.62 1013.78 1013.88 1013.92 1013.94 1013.94 1013.94 1013.95 1013.97 1014.01 1014.06 1014.11 1014.16 1014.21 1014.26 1014.30
1007.84 1008.24 1008.71 1009.22 1009.72 1010.18 1010.56 1010.84 1011.02 1011.09 1011.10 1011.06 1011.04 1011.06 1011.15 1011.32 1011.57 1011.89 1012.26 1012.65 1013.03 1013.38 1013.67 1013.90 1014.08 1014.20 1014.28 1014.32 1014.34 1014.35 1014.36 1014.36 1014.36 1014.36 1014.36 1014.35 1014.35 1014.35
1006.94 1007.34 1007.82 1008.36 1008.92 1009.46 1009.94 1010.33 1010.61 1010.80 1010.89 1010.94 1010.96 1011.00 1011.09 1011.25 1011.48 1011.79 1012.15 1012.54 1012.95 1013.34 1013.70 1014.02 1014.28 1014.48 1014.64 1014.74 1014.80 1014.84 1014.85 1014.84 1014.81 1014.78 1014.74 1014.70 1014.66 1014.62
1006.08 1006.45 1006.92 1007.47 1008.06 1008.65 1009.19 1009.66 1010.04 1010.31 1010.50 1010.61 1010.69 1010.77 1010.88 1011.05 1011.28 1011.59 1011.95 1012.37 1012.81 1013.26 1013.70 1014.09 1014.44 1014.74 1014.98 1015.16 1015.28 1015.36 1015.39 1015.39 1015.37 1015.33 1015.28 1015.22 1015.16 1015.11
1005.27 1005.60 1006.06 1006.60 1007.20 1007.81 1008.39 1008.91 1009.34 1009.68 1009.93 1010.11 1010.25 1010.37 1010.52 1010.71 1010.96 1011.29 1011.68 1012.12 1012.61 1013.12 1013.62 1014.10 1014.53 1014.92 1015.25 1015.51 1015.70 1015.84 1015.92 1015.96 1015.96 1015.94 1015.90 1015.84 1015.78 1015.73
1004.51 1004.83 1005.26 1005.79 1006.38 1006.99 1007.58 1008.12 1008.58 1008.95 1009.25 1009.47 1009.65 1009.82 1010.01 1010.24 1010.52 1010.88 1011.30 1011.78 1012.32 1012.87 1013.44 1013.99 1014.51 1014.98 1015.39 1015.74 1016.01 1016.22 1016.37 1016.46 1016.51 1016.52 1016.50 1016.47 1016.44 1016.40
1003.82 1004.13 1004.56 1005.07 1005.65 1006.24 1006.82 1007.35 1007.81 1008.19 1008.51 1008.76 1008.97 1009.17 1009.39 1009.66 1009.98 1010.36 1010.82 1011.34 1011.91 1012.51 1013.13 1013.74 1014.32 1014.87 1015.36 1015.79 1016.14 1016.43 1016.65 1016.81 1016.92 1016.98 1017.01 1017.02 1017.01 1017.01
1003.19 1003.52 1003.95 1004.47 1005.03 1005.60 1006.15 1006.65 1007.10 1007.47 1007.77 1008.03 1008.25 1008.48 1008.72 1009.01 1009.36 1009.77 1010.25 1010.80 1011.39 1012.03 1012.68 1013.33 1013.97 1014.57 1015.13 1015.63 1016.06 1016.43 1016.72 1016.95 1017.12 1017.24 1017.32 1017.38 1017.42 1017.46
1002.64 1003.01 1003.46 1003.98 1004.53 1005.08 1005.60 1006.07 1006.47 1006.81 1007.10 1007.34 1007.56 1007.79 1008.04 1008.35 1008.71 1009.13 1009.63 1010.18 1010.79 1011.43 1012.10 1012.78 1013.44 1014.09 1014.70 1015.25 1015.76 1016.19 1016.56 1016.86 1017.09 1017.27 1017.41 1017.51 1017.60 1017.68
1002.21 1002.62 1003.09 1003.61 1004.15 1004.68 1005.16 1005.59 1005.95 1006.25 1006.50 1006.72 1006.92 1007.14 1007.40 1007.70 1008.05 1008.48 1008.97 1009.52 1010.12 1010.76 1011.42 1012.10 1012.78 1013.45 1014.09 1014.70 1015.25 1015.75 1016.17 1016.54 1016.83 1017.06 1017.25 1017.40 1017.53 1017.65
1001.91 1002.35 1002.84 1003.36 1003.88 1004.37 1004.82 1005.20 1005.52 1005.77 1005.99 1006.17 1006.35 1006.55 1006.79 1007.08 1007.43 1007.84 1008.31 1008.84 1009.42 1010.04 1010.69 1011.36 1012.04 1012.71 1013.38 1014.01 1014.60 1015.14 1015.62 1016.03 1016.38 1016.66 1016.89 1017.08 1017.25 1017.41
1001.74 1002.19 1002.67 1003.17 1003.66 1004.11 1004.51 1004.85 1005.12 1005.34 1005.51 1005.67 1005.83 1006.01 1006.23 1006.51 1006.84 1007.23 1007.68 1008.19 1008.74 1009.33 1009.96 1010.60 1011.27 1011.94 1012.61 1013.26 1013.88 1014.45 1014.97 1015.42 1015.81 1016.13 1016.40 1016.63 1016.83 1017.03
1001.66 1002.08 1002.53 1002.99 1003.43 1003.83 1004.18 1004.47 1004.70 1004.88 1005.02 1005.16 1005.30 1005.48 1005.69 1005.96 1006.28 1006.66 1007.09 1007.58 1008.10 1008.67 1009.27 1009.89 1010.54 1011.20 1011.86 1012.52 1013.15 1013.75 1014.30 1014.79 1015.21 1015.57 1015.87 1016.13 1016.37 1016.60
1001.60 1001.96 1002.34 1002.74 1003.11 1003.45 1003.75 1003.99 1004.18 1004.33 1004.46 1004.59 1004.73 1004.91 1005.13 1005.41 1005.73 1006.12 1006.55 1007.02 1007.53 1008.08 1008.66 1009.26 1009.89 1010.53 1011.19 1011.85 1012.49 1013.10 1013.67 1014.19 1014.65 1015.04 1015.38 1015.68 1015.95 1016.21
1001.48 1001.75 1002.04 1002.35 1002.65 1002.92 1003.15 1003.35 1003.51 1003.65 1003.77 1003.91 1004.07 1004.27 1004.53 1004.83 1005.19 1005.59 1006.04 1006.53 1007.05 1007.59 1008.16 1008.75 1009.36 1009.99 1010.63 1011.28 1011.92 1012.54 1013.13 1013.68 1014.17 1014.61 1014.99 1015.32 1015.63 1015.93
1001.22 1001.38 1001.58 1001.79 1002.00 1002.20 1002.38 1002.54 1002.68 1002.81 1002.95 1003.11 1003.31 1003.56 1003.86 1004.22 1004.63 1005.08 1005.57 1006.10 1006.64 1007.20 1007.77 1008.35 1008.95 1009.57 1010.19 1010.83 1011.46 1012.09 1012.69 1013.26 1013.78 1014.25 1014.68 1015.06 1015.42 1015.75
1000.78 1000.84 1000.94 1001.06 1001.19 1001.33 1001.46 1001.59 1001.72 1001.86 1002.02 1002.22 1002.47 1002.78 1003.15 1003.58 1004.06 1004.59 1005.15 1005.72 1006.31 1006.90 1007.48 1008.07 1008.66 1009.25 1009.86 1010.47 1011.09 1011.70 1012.31 1012.89 1013.44 1013.96 1014.43 1014.87 1015.27 1015.64
1000.18 1000.16 1000.17 1000.22 1000.28 1000.37 1000.47 1000.58 1000.70 1000.85 1001.05 1001.29 1001.60 1001.98 1002.43 1002.94 1003.52 1004.13 1004.77 1005.41 1006.05 1006.68 1007.29 1007.87 1008.45 1009.02 1009.59 1010.17 1010.75 1011.35 1011.94 1012.54 1013.11 1013.66 1014.18 1014.67 1015.11 1015.53
999.47 999.38 999.34 999.34 999.37 999.42 999.50 999.60 999.73 999.90 1000.12 1000.41 1000.78 1001.23 1001.76 1002.37 1003.03 1003.74 1004.46 1005.17 1005.87 1006.53 1007.16 1007.74 1008.30 1008.83 1009.36 1009.88 1010.42 1010.98 1011.56 1012.14 1012.73 1013.31 1013.87 1014.39 1014.88 1015.34
998.73 998.62 998.56 998.54 998.55 998.60 998.67 998.77 998.91 999.10 999.35 999.68 1000.10 1000.62 1001.22 1001.91 1002.65 1003.44 1004.23 1005.02 1005.76 1006.45 1007.08 1007.66 1008.18 1008.66 1009.13 1009.60 1010.07 1010.58 1011.12 1011.68 1012.26 1012.86 1013.44 1014.01 1014.54 1015.02
Thickness
5654 5659 5663 5669 5674 5679 5684 5687 5687 5688 5694 5705 5713 5720 5722 5720 5719 5719 5719 5720 5722 5724 5726 5727 5728 5729 5728 5727 5726 5725 5723 5721 5719 5717 5717 5716 5715 5715
5641 5646 5650 5656 5662 5668 5673 5679 5682 5683 5687 5698 5704 5709 5712 5712 5711 5712 5712 5712 5714 5717 5719 5721 5723 5723 5723 5723 5722 5721 5719 5717 5716 5715 5714 5713 5712 5712
5629 5633 5638 5643 5648 5654 5661 5667 5671 5675 5678 5687 5696 5700 5701 5702 5701 5702 5703 5705 5705 5708 5711 5714 5716 5717 5717 5717 5717 5716 5714 5713 5712 5711 5710 5709 5709 5709
5616 5620 5625 5630 5635 5641 5647 5653 5659 5664 5668 5674 5681 5686 5689 5691 5692 5694 5697 5698 5698 5699 5702 5705 5708 5709 5710 5710 5710 5710 5709 5708 5707 5706 5706 5705 5704 5704
5605 5608 5612 5616 5622 5628 5634 5640 5646 5652 5657 5662 5669 5676 5679 5681 5683 5685 5688 5689 5690 5690 5693 5696 5699 5701 5701 5702 5703 5703 5703 5702 5701 5700 5700 5700 5699 5699
5593 5596 5599 5604 5610 5614 5620 5627 5634 5639 5645 5650 5657 5664 5669 5673 5675 5675 5676 5680 5682 5684 5685 5687 5690 5691 5693 5693 5694 5695 5695 5695 5694 5694 5694 5693 5693 5693
5580 5583 5587 5592 5597 5602 5609 5615 5621 5628 5633 5639 5646 5652 5659 5663 5666 5669 5669 5671 5673 5676 5677 5680 5682 5683 5684 5684 5685 5687 5688 5688 5687 5687 5686 5686 5685 5685
5566 5570 5574 5579 5584 5590 5597 5603 5610 5616 5622 5629 5636 5643 5650 5657 5661 5662 5663 5664 5664 5669 5671 5672 5675 5676 5676 5676 5676 5678 5679 5680 5679 5679 5678 5678 5677 5677
5553 5557 5562 5570 5574 5579 5584 5590 5597 5604 5611 5619 5626 5634 5642 5650 5654 5655 5658 5659 5662 5665 5665 5664 5666 5667 5666 5666 5668 5669 5671 5671 5670 5670 5670 5669 5668 5668
5543 5547 5550 5557 5564 5569 5574 5578 5584 5592 5600 5608 5618 5626 5633 5640 5646 5651 5652 5653 5656 5658 5661 5657 5658 5657 5656 5656 5658 5660 5662 5662 5661 5661 5661 5660 5660 5658
5535 5540 5544 5549 5555 5560 5564 5570 5575 5582 5589 5598 5607 5615 5622 5628 5636 5639 5642 5644 5646 5649 5654 5654 5651 5649 5648 5647 5648 5650 5652 5653 5653 5652 5652 5652 5651 5650
5529 5534 5540 5544 5548 5552 5557 5561 5566 5572 5581 5589 5595 5603 5611 5619 5626 5632 5637 5640 5643 5642 5647 5649 5647 5647 5643 5641 5641 5642 5643 5644 5644 5644 5644 5644 5644 5643
5524 5529 5535 5539 5544 5547 5552 5556 5561 5565 5572 5579 5586 5594 5602 5610 5618 5625 5632 5637 5641 5644 5647 5647 5646 5647 5646 5639 5637 5637 5638 5637 5637 5637 5638 5638 5638 5637
5520 5526 5532 5535 5538 5542 5547 5552 5555 5558 5565 5572 5579 5586 5595 5604 5612 5620 5627 5633 5637 5643 5645 5647 5647 5647 5644 5639 5637 5634 5634 5633 5633 5633 5633 5633 5633 5632
5517 5522 5527 5531 5533 5537 5542 5546 5549 5553 5559 5565 5572 5581 5591 5599 5606 5612 5619 5624 5628 5635 5640 5643 5645 5645 5644 5642 5639 5635 5632 5630 5631 5630 5629 5629 5628 5627
5513 5518 5521 5526 5531 5536 5539 5541 5545 5551 5556 5561 5568 5576 5585 5592 5599 5606 5611 5616 5619 5624 5631 5636 5639 5640 5640 5639 5637 5634 5633 5631 5629 5628 5626 5625 5625 5624
5515 5518 5521 5525 5529 5534 5539 5542 5545 5548 5553 5559 5564 5571 5578 5586 5593 5600 5605 5610 5615 5618 5622 5627 5631 5635 5637 5635 5632 5631 5631 5630 5628 5626 5623 5621 5621 5620
5514 5520 5524 5528 5532 5536 5540 5543 5546 5549 5553 5556 5561 5568 5574 5581 5587 5594 5600 5606 5610 5614 5617 5622 5625 5627 5627 5627 5630 5628 5628 5627 5625 5623 5621 5618 5616 5616
5514 5521 5526 5529 5533 5536 5541 5544 5547 5550 5553 5556 5560 5565 5571 5578 5584 5590 5595 5601 5605 5609 5613 5618 5622 5624 5622 5620 5621 5626 5626 5624 5621 5618 5617 5617 5615 5613
5518 5524 5528 5531 5534 5537 5541 5544 5548 5551 5553 5556 5560 5565 5570 5575 5581 5587 5593 5598 5603 5606 5609 5613 5617 5621 5622 5621 5620 5621 5623 5621 5618 5614 5614 5614 5612 5611
5522 5526 5530 5533 5537 5540 5543 5546 5549 5552 5554 5557 5560 5564 5568 5573 5579 5585 5590 5594 5600 5603 5607 5610 5614 5618 5620 5619 5616 5615 5617 5617 5616 5614 5612 5610 5607 5605
5525 5529 5531 5534 5538 5541 5544 5547 5551 5553 5555 5558 5561 5563 5567 5573 5579 5584 5589 5594 5598 5602 5604 5606 5609 5612 5615 5614 5613 5612 5611 5609 5610 5611 5610 5610 5608 5604
5527 5530 5533 5536 5539 5542 5545 5549 5551 5554 5556 5559 5561 5564 5568 5573 5578 5584 5587 5592 5595 5599 5600 5602 5604 5607 5610 5612 5611 5609 5608 5606 5606 5605 5604 5605 5606 5606